Jacksonville, IL

9:22 AM CDT on October 22, 2017 (GMT -0500)
Jacksonville Municipal

Weather History for KIJX - August, 2013

Change the Weather History Date:

Tuesday, August 6, 2013

  Actual Average (KSPI) Record (KSPI)
Temperature  
Mean Temperature 76 °F -  
Max Temperature 85 °F 83 °F 102 °F (1947)
Min Temperature 67 °F 63 °F 49 °F (1997)
Cooling Degree Days 10    
Growing Degree Days 26 (Base 50)    
Moisture  
Dew Point 70 °F    
Average Humidity 85    
Maximum Humidity 98    
Minimum Humidity 63    
Precipitation  
Precipitation 0.00 in - - ()
Sea Level Pressure  
Sea Level Pressure 29.89 in    
Wind  
Wind Speed 4 mph (SSE)    
Max Wind Speed 9 mph    
Max Gust Speed -    
Visibility 6 miles    
Events Fog    
Averages and records for this station are not official NWS values.
T = Trace of Precipitation, MM = Missing Value Source: NWS Daily Summary

Daily Weather History Graph

Daily Weather History Graph

Search for Another Location

Airport or City:

Trip Planner

Search our weather history database for the weather conditions in past years. The results will help you decide how hot, cold, wet, or windy it might be!

Date:

Astronomy

Aug. 06, 2013 Rise Set
Actual Time 6:04 AM CDT 8:08 PM CDT
Civil Twilight 5:35 AM CDT 8:37 PM CDT
Nautical Twilight 4:58 AM CDT 9:13 PM CDT
Astronomical Twilight 4:19 AM CDT 9:53 PM CDT
Moon 5:55 AM CDT (8/6) 7:43 PM CDT (8/6)
Length of Visible Light 15h 02m
Length of Day
14h 03m
Waning Crescent, 0% of the Moon is Illuminated
Aug 6
Waning Crescent
Aug 6
New
Aug 14
First Quarter
Aug 20
Full
Aug 28
Last Quarter

Hourly Weather History & Observations

Time (CDT) Temp. Heat Index Dew Point Humidity Pressure Visibility Wind Dir Wind Speed Gust Speed Precip Events Conditions
12:15 AM 68.9 °F - 67.1 °F 94% 29.94 in 4.0 mi South 5.8 mph - N/A   Mostly Cloudy
12:35 AM 68.9 °F - 67.1 °F 94% 29.93 in 5.0 mi SSE 5.8 mph - N/A   Overcast
12:55 AM 68.9 °F - 66.9 °F 93% 29.93 in 4.0 mi SSE 5.8 mph - N/A   Overcast
1:15 AM 68.9 °F - 66.7 °F 93% 29.93 in 5.0 mi South 6.9 mph - N/A   Mostly Cloudy
1:35 AM 68.9 °F - 66.7 °F 93% 29.92 in 5.0 mi SSE 4.6 mph - N/A   Mostly Cloudy
1:55 AM 68.4 °F - 66.4 °F 93% 29.91 in 5.0 mi SSE 4.6 mph - N/A   Scattered Clouds
2:15 AM 68.0 °F - 66.2 °F 94% 29.90 in 4.0 mi SSE 3.5 mph - N/A   Scattered Clouds
2:35 AM 68.0 °F - 66.6 °F 95% 29.90 in 4.0 mi SSE 3.5 mph - N/A   Mostly Cloudy
2:55 AM 68.0 °F - 66.6 °F 95% 29.88 in 4.0 mi SE 3.5 mph - N/A   Overcast
3:15 AM 68.0 °F - 66.4 °F 95% 29.88 in 3.0 mi SE 3.5 mph - N/A   Overcast
3:35 AM 68.0 °F - 66.6 °F 95% 29.88 in 3.0 mi SE 4.6 mph - N/A   Overcast
3:55 AM 67.8 °F - 66.6 °F 96% 29.89 in 2.5 mi SE 4.6 mph - N/A   Overcast
4:15 AM 68.0 °F - 66.7 °F 96% 29.90 in 2.0 mi SSE 3.5 mph - N/A   Overcast
4:35 AM 68.0 °F - 67.1 °F 97% 29.89 in 3.0 mi South 5.8 mph - N/A   Overcast
4:55 AM 68.0 °F - 66.9 °F 96% 29.89 in 2.5 mi South 5.8 mph - N/A   Overcast
5:15 AM 68.0 °F - 67.1 °F 97% 29.90 in 1.0 mi South 5.8 mph - N/A   Overcast
5:35 AM 68.0 °F - 67.1 °F 97% 29.90 in 0.8 mi South 8.1 mph - N/A   Overcast
5:55 AM 68.2 °F - 67.3 °F 97% 29.91 in 0.8 mi South 5.8 mph - N/A   Overcast
6:15 AM 68.2 °F - 67.3 °F 97% 29.90 in 0.2 mi South 4.6 mph - N/A Fog Fog
6:35 AM 68.4 °F - 67.5 °F 97% 29.90 in 0.2 mi Calm Calm - N/A Fog Fog
6:55 AM 68.9 °F - 68.0 °F 97% 29.91 in 0.2 mi Calm Calm - N/A Fog Fog
7:15 AM 68.9 °F - 68.2 °F 98% 29.92 in 0.2 mi SSW 5.8 mph - N/A Fog Fog
7:35 AM 68.9 °F - 68.2 °F 98% 29.93 in 0.5 mi SSW 5.8 mph - N/A Fog Fog
7:55 AM 69.4 °F - 68.9 °F 98% 29.93 in 0.2 mi SSW 5.8 mph - N/A Fog Fog
8:15 AM 69.8 °F - 69.1 °F 98% 29.93 in 0.5 mi SSW 5.8 mph - N/A Fog Fog
8:35 AM 70.7 °F - 69.8 °F 97% 29.94 in 0.8 mi SSW 6.9 mph - N/A   Overcast
8:55 AM 71.1 °F - 70.3 °F 98% 29.93 in 1.8 mi South 3.5 mph - N/A   Overcast
9:15 AM 71.6 °F - 70.9 °F 98% 29.93 in 3.0 mi SSW 5.8 mph - N/A   Overcast
9:35 AM 72.3 °F - 71.4 °F 97% 29.93 in 3.0 mi Calm Calm - N/A   Overcast
9:55 AM 72.9 °F - 71.4 °F 95% 29.92 in 4.0 mi Calm Calm - N/A   Overcast
10:15 AM 74.3 °F - 71.1 °F 90% 29.91 in 5.0 mi Calm Calm - N/A   Overcast
10:35 AM 75.0 °F - 71.4 °F 89% 29.91 in 5.0 mi Calm Calm - N/A   Overcast
10:55 AM 75.4 °F - 71.4 °F 87% 29.91 in 7.0 mi Calm Calm - N/A   Mostly Cloudy
11:15 AM 77.2 °F - 72.3 °F 85% 29.91 in 7.0 mi Calm Calm - N/A   Scattered Clouds
11:35 AM 77.9 °F - 72.9 °F 84% 29.90 in 7.0 mi Calm Calm - N/A   Scattered Clouds
11:55 AM 79.0 °F - 72.9 °F 81% 29.90 in 7.0 mi SE 5.8 mph - N/A   Scattered Clouds
12:15 PM 79.7 °F - 72.7 °F 79% 29.90 in 10.0 mi SSE 6.9 mph - N/A   Scattered Clouds
12:35 PM 79.7 °F - 72.5 °F 79% 29.89 in 10.0 mi South 6.9 mph - N/A   Mostly Cloudy
12:55 PM 80.1 °F 84.1 °F 72.5 °F 78% 29.89 in 10.0 mi SE 8.1 mph - N/A   Mostly Cloudy
1:15 PM 80.4 °F 84.5 °F 72.3 °F 76% 29.89 in 10.0 mi ESE 3.5 mph - N/A   Scattered Clouds
1:35 PM 80.6 °F 84.9 °F 72.3 °F 76% 29.89 in 10.0 mi ESE 6.9 mph - N/A   Scattered Clouds
1:55 PM 81.0 °F 85.2 °F 72.1 °F 74% 29.89 in 10.0 mi Calm Calm - N/A   Scattered Clouds
2:15 PM 81.5 °F 85.7 °F 71.4 °F 71% 29.89 in 10.0 mi Calm Calm - N/A   Scattered Clouds
2:35 PM 83.3 °F 87.9 °F 71.1 °F 66% 29.88 in 10.0 mi Calm Calm - N/A   Scattered Clouds
2:55 PM 84.6 °F 89.4 °F 70.7 °F 63% 29.87 in 10.0 mi SSW 3.5 mph - N/A   Scattered Clouds
3:15 PM 84.7 °F 90.4 °F 71.8 °F 65% 29.86 in 10.0 mi East 5.8 mph - N/A   Scattered Clouds
3:35 PM 84.7 °F 91.4 °F 73.0 °F 68% 29.86 in 10.0 mi South 5.8 mph - N/A   Clear
3:55 PM 84.2 °F 89.9 °F 72.1 °F 67% 29.86 in 10.0 mi SE 4.6 mph - N/A   Clear
4:15 PM 83.5 °F 89.4 °F 72.7 °F 70% 29.87 in 10.0 mi SE 3.5 mph - N/A   Mostly Cloudy
4:35 PM 84.2 °F 90.6 °F 73.2 °F 69% 29.86 in 10.0 mi ESE 8.1 mph - N/A   Scattered Clouds
4:55 PM 83.1 °F 88.9 °F 72.7 °F 71% 29.86 in 10.0 mi SSE 4.6 mph - N/A   Clear
5:15 PM 84.2 °F 90.6 °F 72.9 °F 69% 29.86 in 10.0 mi SSE 5.8 mph - N/A   Scattered Clouds
5:35 PM 84.7 °F 91.4 °F 73.2 °F 68% 29.86 in 10.0 mi SSW 5.8 mph - N/A   Mostly Cloudy
5:55 PM 83.5 °F 89.4 °F 72.9 °F 70% 29.86 in 10.0 mi SW 5.8 mph - N/A   Mostly Cloudy
6:15 PM 83.1 °F 88.9 °F 73.0 °F 71% 29.86 in 10.0 mi SSW 5.8 mph - N/A   Scattered Clouds
6:35 PM 84.2 °F 90.6 °F 73.0 °F 69% 29.86 in 10.0 mi SSW 8.1 mph - N/A   Mostly Cloudy
6:55 PM 83.3 °F 89.0 °F 72.5 °F 70% 29.86 in 10.0 mi South 6.9 mph - N/A   Mostly Cloudy
7:15 PM 82.9 °F 87.7 °F 71.4 °F 68% 29.86 in 10.0 mi SSW 9.2 mph - N/A   Mostly Cloudy
7:35 PM 81.0 °F 85.1 °F 71.6 °F 73% 29.86 in 10.0 mi SSW 4.6 mph - N/A   Scattered Clouds
7:55 PM 79.5 °F - 71.2 °F 76% 29.86 in 10.0 mi SSW 3.5 mph - N/A   Clear
8:15 PM 78.4 °F - 71.4 °F 79% 29.86 in 10.0 mi Calm Calm - N/A   Clear
8:35 PM 77.0 °F - 71.4 °F 83% 29.87 in 10.0 mi Calm Calm - N/A   Clear
8:55 PM 75.6 °F - 70.5 °F 84% 29.88 in 10.0 mi Calm Calm - N/A   Clear
9:15 PM 75.2 °F - 71.1 °F 87% 29.88 in 10.0 mi Calm Calm - N/A   Clear
9:35 PM 74.5 °F - 71.6 °F 91% 29.90 in 10.0 mi Calm Calm - N/A   Scattered Clouds
9:55 PM 74.1 °F - 71.1 °F 90% 29.90 in 10.0 mi Calm Calm - N/A   Scattered Clouds
10:15 PM 74.1 °F - 71.1 °F 90% 29.89 in 10.0 mi SSE 5.8 mph - N/A   Scattered Clouds
10:35 PM 75.2 °F - 71.2 °F 87% 29.89 in 10.0 mi SSE 4.6 mph - N/A   Clear
10:55 PM 75.2 °F - 70.7 °F 86% 29.90 in 10.0 mi SSE 3.5 mph - N/A   Clear
11:15 PM 75.2 °F - 70.2 °F 84% 29.90 in 10.0 mi SSE 4.6 mph - N/A   Clear
11:35 PM 75.0 °F - 69.8 °F 84% 29.90 in 10.0 mi South 6.9 mph - N/A   Clear
11:55 PM 74.7 °F - 69.8 °F 85% 29.90 in 10.0 mi South 6.9 mph - N/A   Clear